Location: Navalespino
(40.5894°N, 4.2660°W)
Time: 09:24:01
(UTC+00:00)

Okean O Rocket - Pass Details

Date: 18 April 2024
Orbit: 619 x 639 km, 98.1° (Epoch: 19 May)

Event Time Altitude Azimuth Distance (km) Brightness Sun altitude
Exits shadow 21:01:24 11° 204° (SSW) 1,945 4.0 -21.4°
Maximum altitude 21:05:03 29° 264° (W) 1,157 3.3 -21.9°
Drops below altitude 10° 21:08:52 10° 324° (NW) 2,014 5.2 -22.5°
Sets 21:11:19 0° 336° (NNW) 2,930 6.1 -22.9°
